This is the latest recevied weather packets stored in our database for station/object N5SRF. If no packets are shown the sender has not sent any weather packets the latest 1 day(s).
| Time | Temp. | Humidity | Pressure | Rain* | Wind** | Luminosity | Snow |
|---|---|---|---|---|---|---|---|
| 1778018956 | 28.33° C | 81% | 1010.8 hPa | 0 mm | 1.79 m/s, 208° | 280 W/m² | - |
| 1778018653 | 28.89° C | 80% | 1010.8 hPa | 0 mm | 0.45 m/s, 190° | 152 W/m² | - |
| 1778018351 | 28.33° C | 79% | 1010.7 hPa | 0 mm | 2.24 m/s, 160° | 406 W/m² | - |
| 1778018048 | 28.33° C | 80% | 1010.8 hPa | 0 mm | 0.45 m/s, 190° | 207 W/m² | - |
| 1778017746 | 28.33° C | 80% | 1010.9 hPa | 0 mm | 1.34 m/s, 107° | 157 W/m² | - |
| 1778017443 | 28.33° C | 80% | 1011 hPa | 0 mm | 0.45 m/s, 152° | 186 W/m² | - |
| 1778017140 | 28.33° C | 80% | 1011 hPa | 0 mm | 3.13 m/s, 177° | 226 W/m² | - |
| 1778016838 | 28.33° C | 80% | 1011.3 hPa | 0 mm | 1.34 m/s, 159° | 219 W/m² | - |
| 1778016534 | 28.89° C | 78% | 1011.1 hPa | 0 mm | 0.89 m/s, 325° | 86 W/m² | - |
| 1778016231 | 29.44° C | 76% | 1011 hPa | 0 mm | 0.89 m/s, 178° | 160 W/m² | - |
| 1778015927 | 29.44° C | 76% | 1011 hPa | 0 mm | 0.45 m/s, 164° | 544 W/m² | - |
| 1778015625 | 29.44° C | 75% | 1010.9 hPa | 0 mm | 3.13 m/s, 161° | 291 W/m² | - |
| 1778015321 | 29.44° C | 77% | 1011.2 hPa | 0 mm | 0.45 m/s, 108° | 312 W/m² | - |
| 1778015019 | 29.44° C | 77% | 1011.3 hPa | 0 mm | 1.34 m/s, 162° | 408 W/m² | - |
| 1778014715 | 29.44° C | 78% | 1011.3 hPa | 0 mm | 1.34 m/s, 151° | 553 W/m² | - |
| 1778014414 | 29.44° C | 78% | 1011.5 hPa | 0 mm | 0.45 m/s, 217° | 474 W/m² | - |
| 1778014110 | 28.89° C | 79% | 1011.6 hPa | 0 mm | 1.34 m/s, 192° | 444 W/m² | - |
| 1778013808 | 28.89° C | 79% | 1011.8 hPa | 0 mm | 2.68 m/s, 143° | 311 W/m² | - |
| 1778013505 | 28.89° C | 78% | 1011.9 hPa | 0 mm | 2.24 m/s, 157° | 304 W/m² | - |
| 1778013201 | 28.89° C | 79% | 1011.7 hPa | 0 mm | 0 m/s | 263 W/m² | - |
| 1778012898 | 28.89° C | 80% | 1012 hPa | 0 mm | 1.79 m/s, 179° | 776 W/m² | - |
| 1778012594 | 29.44° C | 78% | 1012.1 hPa | 0 mm | 0 m/s | 205 W/m² | - |
| 1778012291 | 28.89° C | 78% | 1012 hPa | 0 mm | 0.45 m/s, 186° | 232 W/m² | - |
| 1778011988 | 28.89° C | 79% | 1012 hPa | 0 mm | 0.45 m/s, 180° | 322 W/m² | - |
| 1778011687 | 28.33° C | 78% | 1012.4 hPa | 0 mm | 0.89 m/s, 145° | 465 W/m² | - |
* Rain latest hour (hover to see other rain measurements)
** Current wind speed in m/s (hover to see current wind gust speed)